Location: Ailly
(50.0793°N, 1.9944°E)
Time: 21:52:10
(UTC+00:00)

Cosmos 1709 Rocket - Pass Details

Date: 15 January 2026
Orbit: 948 x 1000 km, 82.9° (Epoch: 18 February)

Event Time Altitude Azimuth Distance (km) Brightness Sun altitude
Exits shadow 04:29:37 79° 53° (NE) 974 3.9 -30.6°
Drops below altitude 10° 04:35:30 10° 11° (N) 2,697 6.4 -29.7°
Sets 04:38:01 0° 11° (N) 3,653 7.2 -29.3°
